timestamp,wind_dir_avg,wind_spd_avg,wind_spd_max_dir,wind_spd_gust,battery_voltage
2021-05-03 00:08:41+00:00,231.0,8.19,231.0,10.61,13.29
2021-05-03 00:18:41+00:00,220.0,8.32,222.0,10.53,12.89
2021-05-03 00:28:41+00:00,222.0,7.51,213.0,8.61,12.89
2021-05-03 00:38:41+00:00,221.0,7.54,219.0,9.38,12.89
2021-05-03 00:48:41+00:00,221.0,7.55,224.0,8.69,12.89
2021-05-03 00:58:41+00:00,223.0,6.59,221.0,7.56,12.89
2021-05-03 01:08:41+00:00,215.0,6.96,214.0,9.0,12.89
2021-05-03 01:18:41+00:00,218.0,6.88,217.0,7.94,12.65
2021-05-03 01:28:41+00:00,227.0,6.66,228.0,7.48,12.65
2021-05-03 01:38:41+00:00,228.0,6.33,226.0,6.96,12.65
2021-05-03 01:48:41+00:00,215.0,6.17,221.0,7.73,12.65
2021-05-03 01:58:41+00:00,222.0,7.52,223.0,8.49,12.65
2021-05-03 02:08:41+00:00,219.0,6.48,224.0,7.32,12.65
2021-05-03 02:18:41+00:00,231.0,7.81,225.0,10.48,12.49
2021-05-03 02:28:41+00:00,235.0,4.77,236.0,5.98,12.49
2021-05-03 02:38:41+00:00,231.0,6.81,227.0,8.16,12.49
2021-05-03 02:48:41+00:00,227.0,6.08,226.0,7.79,12.49
2021-05-03 02:58:41+00:00,226.0,7.68,227.0,8.73,12.49
2021-05-03 03:08:41+00:00,218.0,7.71,219.0,8.91,12.49
2021-05-03 03:18:41+00:00,220.0,8.81,222.0,10.62,12.49
2021-05-03 03:28:41+00:00,216.0,7.69,219.0,9.3,12.49
2021-05-03 03:38:41+00:00,212.0,7.44,216.0,9.44,12.49
2021-05-03 03:48:41+00:00,232.0,5.26,236.0,7.18,12.49
2021-05-03 03:58:41+00:00,205.0,5.68,210.0,7.37,12.49
2021-05-03 04:08:41+00:00,204.0,3.9,205.0,4.06,12.49
2021-05-03 04:18:40+00:00,215.0,6.21,216.0,6.98,12.41
2021-05-03 04:28:40+00:00,215.0,5.52,215.0,6.48,12.41
2021-05-03 04:38:40+00:00,203.0,5.44,206.0,5.95,12.41
2021-05-03 04:48:40+00:00,203.0,4.73,204.0,5.24,12.41
2021-05-03 04:58:40+00:00,202.0,4.55,203.0,4.84,12.41
2021-05-03 05:08:40+00:00,202.0,4.05,205.0,4.41,12.41
2021-05-03 05:18:41+00:00,198.0,4.56,198.0,4.83,12.41
2021-05-03 05:28:41+00:00,184.0,5.4,184.0,5.67,12.41
2021-05-03 05:38:41+00:00,181.0,5.01,184.0,5.34,12.41
2021-05-03 05:48:41+00:00,173.0,7.18,176.0,9.68,12.41
2021-05-03 05:58:41+00:00,180.0,5.5,180.0,6.13,12.41
2021-05-03 06:08:41+00:00,187.0,5.53,186.0,5.91,12.41
2021-05-03 06:18:41+00:00,185.0,6.58,189.0,7.65,12.41
2021-05-03 06:28:41+00:00,185.0,4.7,192.0,5.14,12.41
2021-05-03 06:38:41+00:00,197.0,4.34,197.0,4.64,12.41
2021-05-03 06:48:41+00:00,200.0,4.0,203.0,4.65,12.41
2021-05-03 06:58:41+00:00,210.0,3.61,205.0,4.18,12.41
2021-05-03 07:08:41+00:00,216.0,4.19,220.0,5.15,12.41
2021-05-03 07:18:40+00:00,226.0,5.38,228.0,5.93,12.41
2021-05-03 07:28:40+00:00,224.0,6.15,224.0,6.95,12.41
2021-05-03 07:38:40+00:00,218.0,6.16,222.0,6.73,12.41
2021-05-03 07:48:40+00:00,225.0,5.45,223.0,6.01,12.41
2021-05-03 07:58:40+00:00,233.0,4.77,233.0,5.17,12.41
2021-05-03 08:08:40+00:00,238.0,5.1,235.0,5.73,12.41
2021-05-03 08:18:40+00:00,215.0,3.46,219.0,3.85,12.41
2021-05-03 08:28:40+00:00,235.0,4.37,234.0,4.74,12.41
2021-05-03 08:38:40+00:00,209.0,3.1,206.0,3.51,12.41
2021-05-03 08:48:40+00:00,229.0,5.53,228.0,6.19,12.41
2021-05-03 08:58:40+00:00,229.0,4.72,231.0,5.31,12.41
2021-05-03 09:08:40+00:00,237.0,3.86,230.0,4.73,12.41
2021-05-03 09:18:41+00:00,215.0,3.8,212.0,4.93,12.41
2021-05-03 09:28:41+00:00,218.0,4.3,222.0,5.21,12.41
2021-05-03 09:38:41+00:00,212.0,1.8,220.0,2.53,12.41
2021-05-03 09:48:41+00:00,234.0,1.8,231.0,2.12,12.41
2021-05-03 09:58:41+00:00,205.0,1.65,200.0,2.0,12.41
2021-05-03 10:08:41+00:00,196.0,2.57,196.0,3.06,12.41
2021-05-03 10:18:40+00:00,176.0,2.15,174.0,2.47,13.05
2021-05-03 10:28:40+00:00,179.0,2.85,177.0,3.09,13.05
2021-05-03 10:38:40+00:00,175.0,2.73,175.0,3.02,13.05
2021-05-03 10:48:40+00:00,189.0,3.71,195.0,4.03,13.05
2021-05-03 10:58:40+00:00,176.0,3.81,171.0,4.48,13.05
2021-05-03 11:08:40+00:00,214.0,4.19,218.0,4.81,13.05
2021-05-03 11:18:41+00:00,209.0,3.36,207.0,4.13,13.6
2021-05-03 11:28:41+00:00,180.0,3.11,183.0,3.38,13.6
2021-05-03 11:38:41+00:00,169.0,4.18,171.0,4.53,13.6
2021-05-03 11:48:41+00:00,191.0,3.93,191.0,4.58,13.6
2021-05-03 11:58:41+00:00,191.0,4.53,199.0,5.27,13.6
2021-05-03 12:08:41+00:00,225.0,6.55,219.0,7.84,13.6
2021-05-03 12:18:41+00:00,232.0,8.54,217.0,10.88,13.68
2021-05-03 12:28:41+00:00,234.0,8.33,222.0,11.6,13.68
2021-05-03 12:38:41+00:00,232.0,9.0,236.0,11.94,13.68
2021-05-03 12:48:41+00:00,229.0,6.52,234.0,9.4,13.68
2021-05-03 12:58:41+00:00,227.0,5.99,216.0,9.41,13.68
2021-05-03 13:08:41+00:00,239.0,5.59,228.0,8.14,13.68
2021-05-03 13:18:41+00:00,233.0,6.43,270.0,10.86,13.76
2021-05-03 13:28:41+00:00,245.0,7.05,242.0,11.13,13.76
2021-05-03 13:38:41+00:00,228.0,9.49,230.0,12.22,13.76
2021-05-03 13:48:41+00:00,233.0,8.99,244.0,12.39,13.76
2021-05-03 13:58:41+00:00,233.0,8.27,216.0,13.38,13.76
2021-05-03 14:08:41+00:00,229.0,11.1,232.0,16.06,13.76
2021-05-03 14:18:41+00:00,227.0,9.74,222.0,13.92,13.92
2021-05-03 14:28:41+00:00,248.0,8.89,242.0,15.34,13.92
2021-05-03 14:38:41+00:00,258.0,9.21,270.0,17.83,13.92
2021-05-03 14:48:41+00:00,249.0,7.8,225.0,12.5,13.92
2021-05-03 14:58:41+00:00,231.0,10.1,248.0,17.82,13.92
2021-05-03 15:08:41+00:00,258.0,9.02,272.0,18.84,13.92
2021-05-03 15:18:41+00:00,247.0,8.47,238.0,16.94,14.0
2021-05-03 15:28:41+00:00,237.0,8.52,247.0,12.45,14.0
2021-05-03 15:38:41+00:00,236.0,7.73,220.0,13.33,14.0
2021-05-03 15:48:41+00:00,233.0,9.58,221.0,15.51,14.0
2021-05-03 15:58:41+00:00,252.0,9.31,262.0,15.47,14.0
2021-05-03 16:08:41+00:00,252.0,8.54,264.0,14.18,14.0
2021-05-03 16:18:41+00:00,229.0,10.98,221.0,15.83,13.76
2021-05-03 16:28:41+00:00,230.0,10.36,227.0,15.22,13.76
2021-05-03 16:38:41+00:00,235.0,11.58,232.0,18.59,13.76
2021-05-03 16:48:41+00:00,233.0,11.84,229.0,14.58,13.76
2021-05-03 16:58:41+00:00,227.0,10.97,228.0,15.24,13.76
2021-05-03 17:08:41+00:00,231.0,13.8,223.0,22.56,13.76
2021-05-03 17:18:41+00:00,263.0,6.67,282.0,9.48,13.68
2021-05-03 17:28:41+00:00,250.0,8.28,239.0,12.87,13.68
2021-05-03 17:38:41+00:00,252.0,6.87,252.0,11.68,13.68
2021-05-03 17:48:41+00:00,249.0,8.28,220.0,12.7,13.68
2021-05-03 17:58:41+00:00,267.0,6.3,276.0,9.07,13.68
2021-05-03 18:08:41+00:00,267.0,9.25,259.0,11.82,13.68
2021-05-03 18:18:41+00:00,268.0,8.58,268.0,12.56,13.68
2021-05-03 18:28:41+00:00,269.0,5.53,265.0,8.22,13.68
2021-05-03 18:38:41+00:00,255.0,5.57,278.0,7.68,13.68
2021-05-03 18:48:41+00:00,262.0,7.16,277.0,10.72,13.68
2021-05-03 18:58:41+00:00,269.0,4.03,270.0,5.91,13.68
2021-05-03 19:08:41+00:00,290.0,9.52,283.0,12.23,13.68
2021-05-03 19:18:41+00:00,284.0,6.33,299.0,8.44,13.68
2021-05-03 19:28:41+00:00,276.0,7.74,275.0,9.6,13.68
2021-05-03 19:38:41+00:00,286.0,7.01,264.0,10.55,13.68
2021-05-03 19:48:41+00:00,258.0,4.4,229.0,6.86,13.68
2021-05-03 19:58:41+00:00,242.0,7.01,233.0,13.23,13.68
2021-05-03 20:08:41+00:00,237.0,6.18,223.0,11.75,13.68
2021-05-03 20:18:41+00:00,251.0,5.3,253.0,8.94,14.08
2021-05-03 20:28:41+00:00,271.0,6.55,256.0,10.1,14.08
2021-05-03 20:38:41+00:00,248.0,6.41,273.0,10.11,14.08
2021-05-03 20:48:41+00:00,274.0,7.19,278.0,10.71,14.08
2021-05-03 20:58:41+00:00,243.0,4.06,240.0,7.15,14.08
2021-05-03 21:08:41+00:00,257.0,7.32,273.0,11.68,14.08
2021-05-03 21:18:41+00:00,260.0,8.01,232.0,11.81,13.6
2021-05-03 21:28:41+00:00,264.0,7.59,257.0,11.07,13.6
2021-05-03 21:38:41+00:00,267.0,7.7,268.0,9.64,13.6
2021-05-03 21:48:41+00:00,269.0,6.77,274.0,11.05,13.6
2021-05-03 21:58:41+00:00,267.0,7.16,276.0,10.6,13.6
2021-05-03 22:08:41+00:00,263.0,6.27,257.0,9.27,13.6
2021-05-03 22:18:41+00:00,259.0,4.91,272.0,7.52,13.68
2021-05-03 22:28:41+00:00,228.0,6.0,227.0,8.07,13.68
2021-05-03 22:38:41+00:00,243.0,6.21,245.0,11.45,13.68
2021-05-03 22:48:41+00:00,246.0,5.43,233.0,8.67,13.68
2021-05-03 22:58:41+00:00,236.0,3.9,241.0,6.87,13.68
2021-05-03 23:08:41+00:00,265.0,7.57,254.0,9.4,13.68
2021-05-03 23:18:41+00:00,269.0,4.73,259.0,6.72,13.21
2021-05-03 23:28:41+00:00,257.0,4.08,276.0,6.1,13.21
2021-05-03 23:38:41+00:00,285.0,7.29,267.0,10.74,13.21
2021-05-03 23:48:41+00:00,284.0,6.43,278.0,8.88,13.21
2021-05-03 23:58:41+00:00,288.0,6.57,284.0,8.24,13.21
